Location: Oak Glen
(34.0495°N, 116.9470°E)
Time: 19:19:03
(UTC-07:00)

N. Korean satellite - Pass Details

Date: 09 October 2017
Orbit: 459 x 517 km, 97.2° (Epoch: 23 October)

Event Time Altitude Azimuth Distance (km) Brightness Sun altitude
Rises 04:08:39 0° 200° (SSW) 2,578 10.5 -17.9°
Reaches altitude 10° 04:11:14 10° 220° (SW) 1,689 9.8 -18.4°
Maximum altitude 04:13:47 18° 265° (W) 1,260 9.6 -19.0°
Drops below altitude 10° 04:16:19 10° 310° (NW) 1,674 10.1 -19.5°
Sets 04:18:53 0° 329° (NNW) 2,547 10.7 -20.0°
